Regional Weather Roundup
Issued by NWS

Home | Current Version | Previous Version | Graphics & Text | Print | Product List | Glossary Off
Versions: 1 2 3 4 5 6 7 8 9 10 11 12 13 14 15 16 17 18 19 20 21 22 23 24 25 26 27 28 29 30 31 32 33 34 35 36 37 38 39 40 41 42 43 44 45 46 47 48 49 50

000
ASUS43 KMKX 231111
RWRWI

WISCONSIN REGIONAL WEATHER ROUNDUP
NATIONAL WEATHER SERVICE MILWAUKEE/SULLIVAN WI
600 AM CDT SUN APR 23 2017

NOTE: "FAIR" INDICATES FEW OR NO CLOUDS BELOW 12,000 FEET WITH NO
SIGNIFICANT WEATHER AND/OR OBSTRUCTIONS TO VISIBILITY.

WIZ001-002-006>008-014>016-023>028-231200-
NORTHWEST WISCONSIN

CITY           SKY/WX    TMP DP  RH WIND       PRES   REMARKS
SUPERIOR ARPT  LGT RAIN  37  35  92 NE9       30.17R WCI  30
ASHLAND        CLOUDY    37  35  92 NE12      30.16R WCI  29
HAYWARD        CLOUDY    44  37  76 NE14      30.10R
SIREN          CLOUDY    45  36  72 NE9       30.10R
CUMBERLAND     CLOUDY    43  36  75 NE7       30.07S
RICE LAKE      CLOUDY    46  37  71 N6        30.07S
CHETEK         CLOUDY    44  37  76 CALM      30.06R
LADYSMITH      PTCLDY    44  38  79 N7        30.08S
EAU CLAIRE     CLOUDY    47  38  71 W6        30.05S
MENOMONIE      PTCLDY    46  36  67 W3        30.06R
NEW RICHMOND   CLEAR     41  35  80 CALM      30.07R
OSCEOLA        PTCLDY    46  39  76 NE6       30.10R
$$

WIZ003>005-009-010-017-018-231200-
NORTH CENTRAL WISCONSIN

CITY           SKY/WX    TMP DP  RH WIND       PRES   REMARKS
MANITOWISH WTR CLOUDY    40  40 100 N9        30.08R WCI  33
ARBOR VITAE    CLOUDY    43  38  85 NE6       30.06R
WOODRUFF       CLOUDY    43  38  85 NE6       30.06R
RHINELANDER    MOCLDY    45  37  73 VRB5      30.06R
EAGLE RIVER    CLOUDY    42  36  80 N9        30.06S
LAND O LAKES   CLOUDY    41  38  89 N9        30.09R
PHILLIPS       CLOUDY    42  38  85 N7        30.07R
TOMAHAWK       PTCLDY    42  34  73 N5        30.06R
MEDFORD        CLOUDY    43  35  71 CALM      30.05R
MERRILL        CLOUDY    40  34  78 CALM      30.05R
$$

WIZ029-030-035-036-043>047-231200-
CENTRAL WISCONSIN

CITY           SKY/WX    TMP DP  RH WIND       PRES   REMARKS
WAUSAU         PTCLDY    48  32  53 VRB6      30.03S
MOSINEE        MOCLDY    43  34  70 SW7       30.05F
MARSHFIELD     CLOUDY    43  31  62 SW7       30.04F
STEVENS POINT  CLOUDY    41  30  65 S5        30.06F
WAUPACA        CLOUDY    45  31  59 CALM      30.07S
WAUTOMA        CLEAR     32  29  88 CALM      30.09S
WISC RAPIDS    CLEAR     41  34  76 SW6       30.07F
CAMP DOUGLAS   CLEAR     45  30  55 W5        30.08S
$$

WIZ011>013-019>022-031-037>040-048>050-231200-
NORTHEAST WISCONSIN

CITY           SKY/WX    TMP DP  RH WIND       PRES   REMARKS
ANTIGO         PTCLDY    40  33  75 CALM      30.03F
SHAWANO        PTCLDY    44  32  63 CALM      30.06R
OCONTO         CLEAR     46  31  55 SW6       30.04S
STURGEON BAY   CLEAR     50  34  54 SW9       30.05R
GREEN BAY      CLEAR     45  35  68 SW6       30.06S
MANITOWOC      CLEAR     48  29  47 W7        30.07S
APPLETON       MOCLDY    46  28  49 SW12      30.06S
CLINTONVILLE   CLOUDY    43  32  65 SW5       30.05F
OSHKOSH        CLEAR     48  30  49 W5        30.08R
$$

WIZ032>034-041-042-053>061-231200-
SOUTHWEST WISCONSIN

CITY           SKY/WX    TMP DP  RH WIND       PRES   REMARKS
LA CROSSE      CLEAR     47  40  76 SE9       30.09F
SPARTA         CLEAR     31  29  94 CALM      30.10F
VIROQUA        CLEAR     45  30  56 SW6       30.11R
BOSCOBEL       CLEAR     34  32  92 CALM      30.14R
PRAIRIE DU CHI CLEAR     38  32  79 CALM      30.14R
PLATTEVILLE    CLEAR     42  33  69 SW3       30.14S
$$

WIZ056-057-062-063-064-067-068-231200-
SOUTH CENTRAL WISCONSIN

CITY           SKY/WX    TMP DP  RH WIND       PRES   REMARKS
REEDSBURG      CLEAR     36  35  97 CALM      30.11S
BARABOO/DELLS  CLEAR     40  30  68 CALM      30.11R
LONE ROCK      CLEAR     35  32  88 CALM      30.13S
MINERAL POINT  CLEAR     45  32  61 SW3       30.13R
MADISON        PTCLDY    37  33  85 CALM      30.12R
MIDDLETON      CLEAR     37  34  89 CALM      30.12S
WATERTOWN      CLEAR     40  30  68 CALM      30.11S
MONROE         CLEAR     43  28  56 SW9       30.13R
JANESVILLE     CLEAR     36  34  93 CALM      30.13S
$$

WIZ051-052-058>065-066-070>072-231200-
SOUTHEAST WISCONSIN

CITY           SKY/WX    TMP DP  RH WIND       PRES   REMARKS
MILWAUKEE      CLEAR     47  24  40 SW3       30.11S
WAUKESHA       CLEAR     36  27  69 CALM      30.13S
MILWAUKEE/TIMM CLEAR     39  23  52 W3        30.12R
RACINE         CLEAR     41  27  57 SW3       30.13S
KENOSHA        CLEAR     36  31  82 SW5       30.12F WCI  32
FOND DU LAC    CLEAR     46  31  55 SW9       30.09S
SHEBOYGAN      CLEAR     41  30  65 SW7       30.09R
WEST BEND      CLEAR     45  28  53 SW3       30.10S
JUNEAU         CLEAR     41  32  70 CALM      30.12R
$$

LSZ147-162-231200-
LAKE SUPERIOR

STATION/POSITION TIME  TEMP    WIND        PRES    WAVE
                       AIR SEA DIR/SP/G            HT/PER
                 (UTC) (F)     (DEG/KT/KT) (MB)    (FT/S)
DEVILS ISLAND    1100   33      20/ 14/ 15 1023.0R
PORT WING        1040   36      30/ 17/ 20 1021.7R
SAXON HARBOR     1030   37      50/ 15/ 20 1020.3R
$$

LMZ867-665-643>646-231200-
LAKE MICHIGAN

STATION/POSITION TIME  TEMP    WIND        PRES    WAVE
                       AIR SEA DIR/SP/G            HT/PER
                 (UTC) (F)     (DEG/KT/KT) (MB)    (FT/S)
CHAMBERS ISLAND  1040   42      10/  7/  7 1017.3R
N MID LAKE BUOY  1050   41 37  360/ 10/ 12 1018.8R   2/ 4
NORTHPORT PIER   1040   42      20/  6/  8 1017.6R
SISTER BAY       0951   42     300/  8/  8   N/A
KEWAUNEE LAKESHO 1048   47     300/  3/  8 1017.2R
SHEBOYGAN LAKESH 1100   48     250/ 10/ 11 1018.8R
PORT WASHINGTON  1030   49     270/  6/ 10 1020.0S
MILWAUKEE LAKESH 1050   51     280/  9/ 11   N/A
KENOSHA   LAKESH 1100   45     250/  6/  8 1020.3
$$

TC  - TEMPERATURE IN CELSIUS
VSB - VISIBILITY IN STATUTE MILES
WCI - WIND CHILL INDEX
HX  - HEAT INDEX




USA.gov is the U.S. government's official web portal to all federal, state and local government web resources and services.